OPS 7218 (TRANSIT 16) 1 02807U 67048A 25351.93689410 .00000117 00000+0 16534-3 0 9998 2 02807 89.6731 353.8438 0022113 100.1963 323.8094 13.50723303883461 OPS 4947 (TRANSIT 17) 1 02965U 67092A 25351.86173172 .00000154 00000+0 21058-3 0 9995 2 02965 89.2492 24.0451 0046517 219.2246 314.3062 13.53454821871666 OPS 7034 (TRANSIT 18) 1 03133U 68012A 25351.74102248 .00000101 00000+0 13825-3 0 9994 2 03133 90.0282 273.6530 0074337 154.6929 266.2730 13.51566828569864 NNSS 19 (TRANSIT 19) 1 04507U 70067A 25351.73490807 .00000096 00000+0 12401-3 0 9995 2 04507 90.0052 234.5374 0170306 278.7698 79.4200 13.51316094722899 NNSS 20 (TRANSIT 20) 1 06909U 73081A 25351.79359286 .00000237 00000+0 23003-3 0 9990 2 06909 89.8562 254.9785 0156525 63.3548 298.3550 13.71436716804303 TRANSAT 1 10457U 77106A 25351.76815382 .00000070 00000+0 94899-4 0 9993 2 10457 89.6481 78.4190 0025870 175.0435 306.9057 13.48944321368119 NOVA 1 1 12458U 81044A 25351.88643877 .00000047 00000+0 88572-4 0 9998 2 12458 89.8528 91.3125 0015902 91.3703 31.3043 13.23278933152545 NOVA 3 1 15362U 84110A 25351.83854896 .00000073 00000+0 15438-3 0 9991 2 15362 90.1223 80.5948 0030132 317.3503 165.7140 13.23045117987668 OSCAR 30 1 15935U 85066A 25351.77820564 .00000073 00000+0 11275-3 0 9991 2 15935 90.1656 99.9295 0169301 69.8472 82.8303 13.36079113965201 OSCAR 24 1 15936U 85066B 25351.83057269 .00000059 00000+0 87401-4 0 9992 2 15936 90.1792 92.3954 0170405 76.1344 41.0064 13.35936476967114 POLAR BEAR 1 17070U 86088A 25351.56008514 .00000118 00000+0 11011-3 0 9996 2 17070 89.6171 183.5808 0041200 105.3442 309.0213 13.75251777960455 OSCAR 27 1 18361U 87080A 25351.75301614 .00000093 00000+0 14109-3 0 9994 2 18361 90.3741 79.4599 0103307 209.3206 150.2121 13.44907706876244 OSCAR 29 1 18362U 87080B 25351.77743110 .00000083 00000+0 12494-3 0 9992 2 18362 90.3753 79.9200 0104202 232.5390 249.0260 13.44449295875771 OSCAR 23 1 19070U 88033A 25351.66085133 .00000091 00000+0 16410-3 0 9991 2 19070 90.3208 16.5452 0189939 166.2513 311.9864 13.27787939823187 OSCAR 32 1 19071U 88033B 25351.63725007 .00000097 00000+0 17613-3 0 9992 2 19071 90.3213 16.6767 0188728 153.2139 325.5255 13.27954687823304 NOVA 2 1 19223U 88052A 25351.76490304 .00000062 00000+0 12787-3 0 9994 2 19223 89.9872 78.2663 0030158 3.1219 112.1018 13.22936310810145 OSCAR 25 1 19419U 88074A 25351.83687703 .00000107 00000+0 16915-3 0 9991 2 19419 90.0343 20.2609 0094698 231.0727 303.6950 13.42624299827085 OSCAR 31 1 19420U 88074B 25351.86089020 .00000096 00000+0 15113-3 0 9990 2 19420 90.0358 20.6118 0093051 225.1400 308.6821 13.42585441827195